Content
SEND FEEDBACK

Daily
Averages
Monthly
Summary
France

LE HAVRE, FRANCE


Home > Europe > France
Elevation: 338 feet     Latitude: 49 31N     Longitude: 000 04E

WEATHER
 
SELECT A DAY
Number of Records: 176,918;   Date Range: 3/4/97 - 9/15/14
 
SHARE

PRINT THIS DATA

[ ← Previous Day ]
WEATHER ALMANAC - FEBRUARY 21, 2014
[ Next Day → ]
[ °C ]   °F
Weather ElementAverageHighLow
Temperature44.4 °F48.2 °F (3:30 pm)41 °F (5:30 am)
Dewpoint37.2 °F40 °F (1:00 am)33.8 °F (5:00 pm)
Humidity74 %87 % (5:30 am)57 % (4:00 pm)
Barometer29.76 in29.83 in (12:30 pm)29.65 in (12:00 am)
Wind Speed15.1 mph25.3 mph (6:00 am)
Weather ElementAverage
Visibility7.4 mi
Wind DirectionSSW (211.9 °)

Weather ElementTotal
Precipitation---
Heating Degree Days20.4 (Base 65)
Averaged from 70 records on February 21, 2014
WEATHER CONDITIONS BREAKOUT
WIND DIRECTION BREAKOUT
WEATHER BY HOUR - FEBRUARY 21, 2014
[ °C ]   °F
Local TimeTemperatureDewpointHumidityBarometerVisibilityWind DirectionWind SpeedGust SpeedPrecipitationEventsConditions
12:00 AM44.6 °F39.2 °F81 %29.65 in6.2 miSW (220°)13.8 mphOvercast
12:30 AM44.6 °F39.2 °F81 %29.65 in6.2 miSSW (210°)11.5 mphPartly Cloudy
1:00 AM44.0 °F40.0 °F83 %29.66 inSSE (160°)11.5 mph
1:00 AM44.6 °F39.2 °F81 %29.65 in6.2 miSSW (210°)13.8 mphScattered Clouds
1:30 AM44.6 °F37.4 °F76 %29.65 in6.2 miSSW (210°)15.0 mphPartly Cloudy
2:00 AM44.0 °F40.0 °F79 %29.67 inESE (110°)9.2 mph
2:00 AM42.8 °F37.4 °F81 %29.65 in6.2 miSSW (210°)13.8 mphScattered Clouds
2:30 AM42.8 °F37.4 °F81 %29.65 in6.2 miSW (220°)15.0 mphPartly Cloudy
3:00 AM42.8 °F37.4 °F81 %29.65 in6.2 miSW (220°)12.7 mphMostly Cloudy
3:00 AM44.0 °F39.0 °F76 %29.67 inSouth (190°)13.8 mph
3:30 AM42.8 °F37.4 °F81 %29.65 in6.2 miSW (220°)15.0 mphOvercast
4:00 AM43.0 °F38.0 °F78 %29.67 in19.0 miSSW (210°)18.4 mphRainLight Rain
4:00 AM42.8 °F35.6 °F76 %29.65 in6.2 miSW (230°)20.7 mphRainLight Rain
4:30 AM42.8 °F37.4 °F81 %29.65 in6.2 miSW (230°)19.6 mphMostly Cloudy
5:00 AM42.8 °F37.4 °F81 %29.68 inWSW (240°)20.7 mphDrizzle
5:30 AM41.0 °F37.4 °F87 %29.68 in6.2 miWSW (240°)16.1 mphMostly Cloudy
6:00 AM42.8 °F35.6 °F76 %29.68 in6.2 miWSW (250°)19.6 mphMostly Cloudy
6:00 AM43.0 °F37.0 °F73 %29.70 inSW (230°)25.3 mph
6:30 AM42.8 °F37.4 °F81 %29.71 in6.2 miWSW (240°)18.4 mphMostly Cloudy
7:00 AM42.0 °F38.0 °F82 %29.72 inSSW (200°)15.0 mph
7:00 AM41.0 °F37.4 °F87 %29.71 in6.2 miSW (230°)18.4 mphMostly Cloudy
7:30 AM41.0 °F37.4 °F87 %29.71 in6.2 miSW (230°)17.3 mphMostly Cloudy
8:00 AM42.0 °F38.0 °F79 %29.75 inSSW (200°)15.0 mph
8:00 AM41.0 °F35.6 °F81 %29.74 in6.2 miSW (230°)17.3 mphScattered Clouds
8:30 AM42.8 °F35.6 °F76 %29.74 in6.2 miSW (230°)16.1 mphScattered Clouds
9:00 AM42.8 °F37.4 °F81 %29.77 in6.2 miSW (220°)15.0 mphPartly Cloudy
9:00 AM42.0 °F39.0 °F84 %29.78 inSouth (180°)10.4 mph
9:30 AM42.8 °F35.6 °F76 %29.77 in6.2 miSW (220°)17.3 mphMostly Cloudy
10:00 AM42.0 °F39.0 °F84 %29.79 in19.0 miSouth (180°)12.7 mphPartly Cloudy
10:00 AM42.8 °F37.4 °F81 %29.77 in6.2 miSW (220°)17.3 mphScattered Clouds
10:30 AM42.8 °F37.4 °F81 %29.80 in6.2 miSW (230°)19.6 mphMostly Cloudy
11:00 AM44.0 °F38.0 °F71 %29.80 inSSW (200°)17.3 mph
11:00 AM42.8 °F35.6 °F76 %29.80 in6.2 miSW (230°)19.6 mphScattered Clouds
11:30 AM44.6 °F37.4 °F76 %29.80 in6.2 miSW (220°)16.1 mphPartly Cloudy
12:00 PM44.6 °F39.2 °F81 %29.80 in6.2 miSW (230°)17.3 mphMostly Cloudy
12:00 PM45.0 °F39.0 °F71 %29.82 inSSW (200°)17.3 mph
12:30 PM44.6 °F35.6 °F71 %29.83 in6.2 miSW (220°)15.0 mphMostly Cloudy
1:00 PM45.0 °F39.0 °F73 %29.82 in19.0 miSouth (180°)11.5 mphPartly Cloudy
1:00 PM46.4 °F37.4 °F71 %29.80 in6.2 miSSW (210°)16.1 mphPartly Cloudy
1:30 PM46.4 °F39.2 °F76 %29.80 in6.2 miSW (220°)15.0 mph
2:00 PM48.0 °F39.0 °F62 %29.81 inSSW (200°)16.1 mph
2:00 PM46.4 °F37.4 °F71 %29.80 in6.2 miSW (230°)17.3 mphScattered Clouds
2:30 PM46.4 °F39.2 °F76 %29.80 in6.2 miWSW (240°)16.1 mphMostly Cloudy
3:00 PM46.4 °F37.4 °F71 %29.80 in6.2 miSW (230°)12.7 mphMostly Cloudy
3:00 PM46.0 °F39.0 °F67 %29.81 inSSW (200°)11.5 mph
3:30 PM48.2 °F37.4 °F66 %29.80 in6.2 miWSW (240°)16.1 mphMostly Cloudy
4:00 PM48.0 °F38.0 °F57 %29.80 inSSW (200°)13.8 mph
4:00 PM48.2 °F37.4 °F66 %29.80 in6.2 miWSW (240°)15.0 mphMostly Cloudy
4:30 PM48.2 °F37.4 °F66 %29.80 in6.2 miSW (230°)13.8 mphPartly Cloudy
5:00 PM47.0 °F37.0 °F57 %29.81 inSouth (190°)13.8 mph
5:00 PM48.2 °F33.8 °F58 %29.80 in6.2 miSW (220°)13.8 mphMostly Cloudy
5:30 PM46.4 °F35.6 °F66 %29.80 in6.2 miSW (230°)16.1 mphMostly Cloudy
6:00 PM46.4 °F33.8 °F62 %29.80 in6.2 miSW (230°)12.7 mphMostly Cloudy
6:00 PM47.0 °F37.0 °F57 %29.81 inSouth (190°)13.8 mph
6:30 PM46.4 °F33.8 °F62 %29.80 in6.2 miSW (230°)12.7 mphMostly Cloudy
7:00 PM46.0 °F38.0 °F65 %29.82 in16.0 miSSW (200°)15.0 mphPartly Cloudy
7:00 PM46.4 °F33.8 °F62 %29.83 in6.2 miSW (230°)16.1 mphMostly Cloudy
7:30 PM44.6 °F35.6 °F71 %29.83 in6.2 miSW (230°)12.7 mphMostly Cloudy
8:00 PM45.0 °F38.0 °F69 %29.83 inSouth (170°)9.2 mph
8:00 PM44.6 °F35.6 °F71 %29.83 in6.2 miSW (220°)11.5 mphOvercast
8:30 PM44.6 °F35.6 °F71 %29.83 in6.2 miSSW (210°)15.0 mphOvercast
9:00 PM44.6 °F35.6 °F71 %29.80 in6.2 miSSW (210°)12.7 mph
9:00 PM44.0 °F38.0 °F73 %29.82 inSSE (150°)9.2 mph
9:30 PM44.6 °F35.6 °F71 %29.80 in6.2 miSSW (210°)13.8 mphMostly Cloudy
10:00 PM44.0 °F38.0 °F71 %29.82 in19.0 miSouth (190°)10.4 mphPartly Cloudy
10:00 PM44.6 °F35.6 °F71 %29.80 in6.2 miSSW (200°)15.0 mphScattered Clouds
10:30 PM44.6 °F35.6 °F71 %29.80 in6.2 miSSW (200°)15.0 mph
11:00 PM44.0 °F38.0 °F71 %29.81 inSouth (180°)12.7 mph
11:00 PM42.8 °F35.6 °F76 %29.80 in6.2 miSSW (200°)16.1 mph
11:30 PM42.8 °F35.6 °F76 %29.80 in6.2 miSSW (200°)17.3 mph
Hourly data recorded from LFOH, located miles away from Le Havre, France







STORIES FROM OUR PARTNERS